Voltar ao catálogo

MARCO-A

AtivoCiênciaVLEO
NORAD 43458·PAYLOAD·🇺🇸 United States

Lançado May 5, 2018 de Vandenberg Space Force Base

Loading…

Próximas Passagens (próximas 24 horas)

TLE

ObsoletoSource: Space-Track

Época: May 5, 2018, 12:23 UTC

1 43458U 18042B   18125.51663196 -.00002567 +81162-5 +00000-0 0  9997
2 43458 063.9700 108.8000 0014000 352.2000 089.5396 16.35832554000007

Acompanhe MARCO-A em tempo real com AllMySat

Download on the App Store